Location: Biharia
(46.4333°N, 22.8000°E)
Time: 01:07:10
(UTC+00:00)

BREEZE-M DEB (TANK) - Pass Details

Date: 16 October 2021
Orbit: 335 x 14799 km, 49.5° (Epoch: 02 December)

Event Time Altitude Azimuth Distance (km) Brightness Sun altitude
Rises 16:06:20 0° 268° (W) 7,820 11.5 -5.2°
Reaches altitude 10° 16:13:43 10° 272° (W) 4,884 9.6 -6.5°
Maximum altitude 16:23:28 63° 353° (N) 881 4.1 -8.2°
Enters shadow 16:26:35 11° 76° (ENE) 1,622 4.8 -8.7°
